User: anonymous   Login
Location: *
(40.4270°N, 9.4940°E)
Time: 05:35:33
(UTC+02:00)
Language:

ATLAS 5 CENTAUR R/B - Orbit

View from above orbital plane
View from above orbital plane
View from above satellite
View from above satellite

Ground track
Ground track

The orbit data is extracted from the following two-line orbital elements,

1 31702U 07027B   17173.95205309 0.00000000  00000-0  00000-0 0    04
2 31702  63.3642 206.0555 0275315   4.6698 355.3302 14.18566846    08
Epoch (UTC): 22 June 2017 22:50:57
Eccentricity: 0.0275315
inclination: 63.3642°
perigee height: 632 km
apogee height: 1028 km
right ascension of ascending node: 206.0555°
argument of perigee: 4.6698°
revolutions per day: 14.18566846
mean anomaly at epoch: 355.3302°
orbit number at epoch: 0

The dashed part of the orbit path shows where the satellite is in the earth's shadow,  

DLR